Volver al catálogo

GEESAT 1-04

ActivoComunicacionesLEO
NORAD 52788·PAYLOAD·🇨🇳 China

Lanzado Jun 2, 2022 desde Xichang Satellite Launch Center

Loading…

Próximos Pases (próximas 24 horas)

TLE

ActualizadoSource: Space-Track

Época: Sep 14, 2026, 21:09 UTC

1 52788U 22058D   26257.88189010  .00001287  00000-0  19011-3 0  9997
2 52788  50.0040 148.8251 0009355 130.3142 229.8614 14.81596609233229

Sigue GEESAT 1-04 en tiempo real con AllMySat

Download on the App Store